[[{"header":{"parameterUnit":"m.s-1","parameterCategory":1,"la1":30.2991,"la2":30.254,"lo1":-89.0895,"lo2":-89.0444,"dy":0.0017,"dx":0.0017,"nx":28,"ny":28,"refTime":"2026-02-17T03:00:00:Z","depth":0,"parameterNumber":2,"parameterNumberName":"U-component_of_WINDS"},"data":[0,0,0,0,0,0,0,0,0,0,0,0,0,0,0,0,0,0,0,0,0,0,0,0,0,0,0,0,0,0,0,0,0,0,0,0,0,0,0,0,0,0,0,0,0,0,0,0,0,0,0,0,0,0,0,0,0,0,-0.392,-0.392,0,-0.3964,-0.3964,-0.3965,-0.3988,-0.3988,-0.3988,-0.3989,-0.4036,-0.4037,-0.4038,0,0,0,0,0,0,0,0,0,0,0,0,0,-0.386,-0.3861,-0.392,-0.392,-0.3921,-0.3964,-0.3964,-0.3965,-0.3988,-0.3988,-0.3988,-0.3989,-0.4036,-0.4037,-0.4038,0,0,0,0,0,0,0,0,0,0,0,0,0,-0.3893,-0.3861,-0.392,-0.3938,-0.394,-0.3963,-0.3964,-0.3965,-0.3988,-0.3988,-0.3988,-0.3989,-0.4035,-0.4037,-0.4039,-0.4048,0,0,-0.4044,-0.4045,0,0,0,0,0,0,0,0,-0.3891,-0.3895,-0.3935,-0.3937,-0.3939,-0.3971,-0.3961,-0.3993,-0.3988,-0.397,-0.3989,-0.3989,-0.4014,-0.4018,-0.4026,-0.4051,-0.4053,-0.4044,-0.4046,-0.4046,-0.4047,0,0,0,0,0,0,0,-0.3889,-0.3894,-0.3937,-0.3935,-0.3938,-0.3945,-0.395,-0.3967,-0.3991,-0.3972,-0.3973,-0.3978,-0.4016,-0.4024,-0.4027,-0.4053,-0.4044,-0.4046,-0.4047,-0.4048,-0.409,-0.409,0,0,0,0,0,0,-0.3883,-0.3892,-0.3936,-0.3939,-0.3915,-0.3946,-0.3951,-0.396,-0.3991,-0.3996,-0.3978,-0.3979,-0.4021,-0.4025,-0.4029,-0.4043,-0.4046,-0.4048,-0.4049,-0.409,-0.409,-0.409,0,0,0,0,0,0,-0.3882,-0.3887,-0.3934,-0.3916,-0.3922,-0.3947,-0.3957,-0.3961,-0.397,-0.3996,-0.4001,-0.3982,-0.4021,-0.4026,-0.4044,-0.4045,-0.4049,-0.405,-0.409,-0.409,-0.409,-0.4071,0,0,0,0,0,0,-0.388,-0.3886,-0.389,-0.3915,-0.3923,-0.3947,-0.3957,-0.3962,-0.3973,-0.3974,-0.4001,-0.4006,-0.4022,-0.4041,-0.4045,-0.4048,-0.4052,-0.409,-0.409,-0.409,-0.4072,-0.4071,-0.407,0,0,0,0,0,-0.3878,-0.3883,-0.389,-0.3895,-0.3927,-0.3947,-0.3951,-0.3969,-0.3973,-0.3977,-0.3994,-0.4005,-0.4044,-0.4042,-0.4048,-0.4051,-0.409,-0.409,-0.409,-0.4073,-0.4071,-0.407,0,0,0,0,0,0,-0.3857,-0.3887,-0.3894,-0.3908,-0.3924,-0.3951,-0.3956,-0.3967,-0.3983,-0.3985,-0.4007,-0.4013,-0.4028,-0.4041,-0.4038,-0.4063,-0.4068,-0.407,-0.4053,-0.4052,-0.4051,-0.4048,-0.4053,0,0,0,0,0,-0.3854,-0.3867,-0.3892,-0.3901,-0.3909,-0.3931,-0.394,-0.3953,-0.3971,-0.3979,-0.3997,-0.4016,-0.4033,-0.4043,-0.406,-0.4074,-0.4081,-0.4079,-0.4078,-0.4077,-0.4078,-0.4088,-0.4087,-0.409,-0.409,-0.409,0,0,-0.3848,-0.3866,-0.3872,-0.3898,-0.3912,-0.3926,-0.3937,-0.3951,-0.3961,-0.3981,-0.3998,-0.4013,-0.4035,-0.4051,-0.4059,-0.4062,-0.4079,-0.4077,-0.4076,-0.4078,-0.4088,-0.4087,-0.4087,-0.409,-0.409,-0.409,0,0,-0.3844,-0.3858,-0.3868,-0.3882,-0.3904,-0.3918,-0.3921,-0.3946,-0.3955,-0.3973,-0.3988,-0.4002,-0.403,-0.4046,-0.4057,-0.406,-0.4071,-0.4065,-0.4059,-0.4069,-0.4068,-0.4068,-0.407,-0.407,-0.4066,-0.4066,-0.4066,0,-0.3834,-0.3854,-0.3872,-0.3884,-0.3896,-0.3914,-0.3924,-0.3938,-0.3964,-0.3972,-0.3976,-0.4012,-0.4028,-0.4048,-0.4049,-0.4058,-0.4062,-0.4062,-0.4067,-0.4067,-0.4067,-0.4069,-0.407,-0.4065,-0.4065,-0.4065,-0.4065,0,-0.3841,-0.3854,-0.386,-0.3884,-0.3896,-0.3908,-0.3929,-0.3939,-0.395,-0.3965,-0.3983,-0.4004,-0.4025,-0.4031,-0.4042,-0.4053,-0.4055,-0.4062,-0.4069,-0.4066,-0.4068,-0.4069,-0.4063,-0.4064,-0.4064,-0.4064,0,0,-0.3824,-0.3858,-0.386,-0.3872,-0.3898,-0.3909,-0.3922,-0.3943,-0.3952,-0.3969,-0.3982,-0.4006,-0.4013,-0.4026,-0.404,-0.4048,-0.405,-0.4054,-0.4055,-0.4053,-0.4064,-0.4059,-0.4059,-0.4057,-0.4058,-0.4058,-0.4063,0,-0.3824,-0.3847,-0.3864,-0.3882,-0.3895,-0.3913,-0.3925,-0.3943,-0.3957,-0.3972,-0.3988,-0.4005,-0.4012,-0.4021,-0.4029,-0.4047,-0.4052,-0.4047,-0.407,-0.4071,-0.4064,-0.406,-0.4055,-0.4058,-0.4064,-0.4064,-0.4064,0,-0.3827,-0.3843,-0.3862,-0.3887,-0.3893,-0.3903,-0.3924,-0.3937,-0.3958,-0.3968,-0.3983,-0.3997,-0.4014,-0.4018,-0.4042,-0.4038,-0.4049,-0.4059,-0.406,-0.4063,-0.4067,-0.4064,-0.406,-0.406,-0.4065,-0.4065,-0.4065,0,-0.3814,-0.3841,-0.3856,-0.3865,-0.3894,-0.3901,-0.3914,-0.3935,-0.3947,-0.3965,-0.3973,-0.3993,-0.4005,-0.4021,-0.4041,-0.4042,-0.4062,-0.4069,-0.4072,-0.4072,-0.4076,-0.4075,-0.4074,-0.4082,-0.4082,-0.4082,-0.4082,0,-0.3812,-0.3823,-0.385,-0.3859,-0.3873,-0.3893,-0.3906,-0.392,-0.3939,-0.3952,-0.3969,-0.3981,-0.4006,-0.4022,-0.4038,-0.4055,-0.406,-0.407,-0.4074,-0.4068,-0.4067,-0.4076,-0.4076,-0.4082,-0.4082,-0.4082,-0.4082,0,-0.38,-0.3818,-0.3836,-0.3862,-0.3869,-0.3878,-0.3901,-0.3911,-0.3927,-0.3943,-0.3948,-0.3973,-0.3993,-0.4014,-0.4041,-0.4051,-0.4068,-0.4074,-0.4061,-0.4063,-0.4066,-0.4066,-0.407,-0.4072,-0.4078,-0.4078,-0.4078,0,-0.3797,-0.3806,-0.3833,-0.3843,-0.3855,-0.387,-0.3882,-0.3903,-0.3915,-0.394,-0.3947,-0.3968,-0.3986,-0.4016,-0.4037,-0.4059,-0.4065,-0.4065,-0.4068,-0.4063,-0.4066,-0.4065,-0.4067,-0.4064,-0.4064,-0.4064,-0.4064,0,-0.3792,-0.3801,-0.3816,-0.3836,-0.3849,-0.3866,-0.3883,-0.389,-0.3915,-0.3927,-0.3947,-0.3961,-0.3988,-0.4009,-0.4033,-0.4047,-0.406,-0.4063,-0.4065,-0.4059,-0.4052,-0.4057,-0.4059,-0.4062,-0.4063,-0.4063,-0.4063,-0.4063,-0.3785,-0.3794,-0.3814,-0.3832,-0.3847,-0.3863,-0.3874,-0.3891,-0.3907,-0.393,-0.3942,-0.3962,-0.3984,-0.4017,-0.4032,-0.4049,-0.4052,-0.4055,-0.4056,-0.4057,-0.4055,-0.4049,-0.4053,-0.4053,-0.4053,-0.4053,-0.4053,0,-0.3781,-0.3795,-0.3811,-0.3834,-0.3848,-0.3858,-0.3878,-0.3889,-0.3906,-0.3925,-0.3942,-0.3966,-0.3986,-0.4009,-0.4031,-0.4041,-0.4047,-0.4046,-0.4046,-0.4049,-0.405,-0.4047,-0.404,-0.404,-0.404,-0.404,-0.404,-0.404,-0.378,-0.3796,-0.3807,-0.3831,-0.3846,-0.3865,-0.3875,-0.3891,-0.3906,-0.3931,-0.3948,-0.3962,-0.3984,-0.4008,-0.4028,-0.4034,-0.4042,-0.4039,-0.4047,-0.4048,-0.4049,-0.405,-0.4046,-0.404,-0.404,-0.4044,-0.4044,-0.4044]},{"header":{"parameterUnit":"m.s-1","parameterCategory":1,"la1":30.2991,"la2":30.254,"lo1":-89.0895,"lo2":-89.0444,"dy":0.0017,"dx":0.0017,"nx":28,"ny":28,"refTime":"2026-02-17T03:00:00:Z","depth":0,"parameterNumber":3,"parameterNumberName":"V-component_of_WINDS"},"data":[0,0,0,0,0,0,0,0,0,0,0,0,0,0,0,0,0,0,0,0,0,0,0,0,0,0,0,0,0,0,0,0,0,0,0,0,0,0,0,0,0,0,0,0,0,0,0,0,0,0,0,0,0,0,0,0,0,0,0.5452,0.5452,0,0.5411,0.541,0.541,0.5399,0.5399,0.5399,0.54,0.5358,0.5357,0.5356,0,0,0,0,0,0,0,0,0,0,0,0,0,0.5525,0.5523,0.5452,0.5452,0.5451,0.5411,0.541,0.541,0.5399,0.5399,0.54,0.54,0.5359,0.5357,0.5356,0,0,0,0,0,0,0,0,0,0,0,0,0,0.5489,0.5523,0.5452,0.5441,0.544,0.5411,0.541,0.5409,0.5399,0.5399,0.54,0.54,0.5359,0.5357,0.5355,0.5335,0,0,0.5349,0.5348,0,0,0,0,0,0,0,0,0.5491,0.5487,0.5443,0.5442,0.544,0.541,0.542,0.5385,0.5399,0.5414,0.54,0.54,0.5375,0.5372,0.5364,0.5334,0.5332,0.5349,0.5348,0.5347,0.5347,0,0,0,0,0,0,0,0.5494,0.5488,0.5436,0.5443,0.5441,0.5439,0.5434,0.5414,0.5393,0.5413,0.5412,0.5407,0.5375,0.5366,0.5363,0.5331,0.5349,0.5347,0.5346,0.5345,0.5283,0.5283,0,0,0,0,0,0,0.5498,0.549,0.5437,0.5435,0.5467,0.5437,0.5432,0.542,0.5393,0.539,0.5407,0.5407,0.5369,0.5365,0.5361,0.5336,0.5347,0.5345,0.5344,0.5284,0.5283,0.5283,0,0,0,0,0,0,0.5499,0.5493,0.5439,0.5462,0.5455,0.5435,0.5422,0.5418,0.5409,0.5389,0.5385,0.5401,0.5369,0.5364,0.5342,0.5334,0.5344,0.5343,0.5284,0.5284,0.5283,0.5285,0,0,0,0,0,0,0.5502,0.5494,0.5485,0.5462,0.5454,0.542,0.5421,0.5417,0.5406,0.5405,0.5383,0.5379,0.5369,0.5345,0.534,0.5332,0.5341,0.5285,0.5284,0.5283,0.5286,0.5285,0.5284,0,0,0,0,0,0.5504,0.5488,0.5485,0.5479,0.5443,0.5419,0.5415,0.5403,0.5405,0.5397,0.5384,0.538,0.5336,0.5343,0.5337,0.5328,0.5285,0.5284,0.5283,0.5286,0.5285,0.5284,0,0,0,0,0,0,0.5511,0.5484,0.5481,0.5456,0.544,0.5417,0.5406,0.5402,0.5384,0.5385,0.5371,0.5366,0.5345,0.5335,0.5343,0.5308,0.5311,0.5309,0.5315,0.5314,0.5313,0.5315,0.5339,0,0,0,0,0,0.5509,0.5492,0.547,0.5451,0.5443,0.5426,0.5415,0.5408,0.539,0.5383,0.5369,0.5353,0.5335,0.5324,0.5307,0.5285,0.528,0.5276,0.5275,0.5274,0.5272,0.526,0.5258,0.528,0.528,0.528,0,0,0.5506,0.549,0.5479,0.5452,0.5438,0.5421,0.542,0.5402,0.5389,0.5381,0.5359,0.5348,0.5329,0.5307,0.5296,0.5297,0.5265,0.5273,0.5273,0.5271,0.5259,0.5257,0.5255,0.5279,0.5279,0.5279,0,0,0.5491,0.5477,0.5459,0.5446,0.5425,0.5415,0.5411,0.5389,0.5381,0.5359,0.5353,0.5338,0.5308,0.5295,0.5285,0.5267,0.5262,0.5262,0.5256,0.5244,0.5243,0.5241,0.5234,0.5232,0.526,0.526,0.526,0,0.549,0.5463,0.5451,0.5433,0.5421,0.5413,0.5395,0.5383,0.5358,0.5351,0.5352,0.5315,0.5302,0.5277,0.5272,0.5264,0.526,0.5263,0.5244,0.5242,0.524,0.5234,0.5231,0.526,0.526,0.526,0.526,0,0.5462,0.5444,0.5432,0.5408,0.5395,0.5377,0.5363,0.5352,0.5346,0.5335,0.5314,0.5298,0.5277,0.5271,0.5265,0.5245,0.5247,0.5246,0.5249,0.5238,0.5232,0.5229,0.526,0.526,0.526,0.526,0,0,0.5448,0.5419,0.5414,0.5404,0.5381,0.5367,0.535,0.5329,0.532,0.5304,0.5289,0.5265,0.5264,0.5253,0.5246,0.5235,0.5222,0.5236,0.5236,0.5234,0.5199,0.5198,0.5196,0.522,0.5219,0.5219,0.52,0,0.543,0.5397,0.5387,0.536,0.5343,0.5336,0.5321,0.5306,0.5296,0.5281,0.5271,0.5253,0.5255,0.5248,0.5237,0.5226,0.5215,0.5227,0.5206,0.5205,0.5209,0.5192,0.5191,0.5174,0.5198,0.5197,0.5197,0,0.5403,0.5386,0.5358,0.5338,0.533,0.5317,0.5298,0.5284,0.5267,0.5261,0.5248,0.5242,0.5225,0.523,0.5205,0.5214,0.5205,0.5198,0.5198,0.5194,0.5199,0.5187,0.5169,0.5166,0.5193,0.5193,0.5194,0,0.5395,0.5365,0.5344,0.5335,0.5312,0.5303,0.5293,0.5277,0.5266,0.525,0.5243,0.5225,0.5215,0.5203,0.5192,0.5197,0.5169,0.5173,0.5163,0.5163,0.5156,0.5157,0.5135,0.5153,0.5153,0.5153,0.5153,0,0.5375,0.5357,0.534,0.5327,0.5308,0.5297,0.5278,0.5268,0.5254,0.524,0.5234,0.522,0.5208,0.5194,0.5186,0.5167,0.5163,0.5157,0.5155,0.5157,0.5158,0.515,0.515,0.5152,0.5152,0.5152,0.5152,0,0.5361,0.5349,0.5326,0.5306,0.5301,0.5287,0.5271,0.5259,0.5249,0.5231,0.5226,0.5212,0.5194,0.5183,0.5161,0.5156,0.5135,0.5134,0.514,0.5139,0.513,0.513,0.5101,0.5097,0.5119,0.5118,0.5118,0,0.5348,0.5335,0.5314,0.5303,0.5293,0.5277,0.5265,0.5255,0.5244,0.5225,0.5215,0.5197,0.5182,0.5154,0.5142,0.5126,0.5123,0.5115,0.5121,0.5123,0.5122,0.5123,0.5121,0.5113,0.5113,0.5113,0.5113,0,0.5326,0.5321,0.5305,0.5287,0.5274,0.5259,0.5244,0.5236,0.5224,0.5212,0.5193,0.5182,0.516,0.5142,0.5125,0.5115,0.5112,0.5111,0.5108,0.5109,0.5112,0.5109,0.5136,0.5111,0.5111,0.5111,0.5112,0.5112,0.5312,0.53,0.5283,0.5265,0.5253,0.524,0.5228,0.5217,0.5202,0.5182,0.5178,0.5159,0.5144,0.512,0.5111,0.5096,0.5097,0.5093,0.5091,0.509,0.509,0.5116,0.5093,0.5093,0.5093,0.5093,0.5093,0,0.5289,0.5278,0.5262,0.5242,0.5228,0.5227,0.5211,0.52,0.5183,0.5169,0.5155,0.5135,0.5118,0.5105,0.5088,0.5079,0.5077,0.5075,0.5075,0.5073,0.509,0.5094,0.5077,0.5077,0.5077,0.5077,0.5077,0.5077,0.5275,0.5254,0.5247,0.5221,0.5211,0.5192,0.5183,0.5171,0.516,0.5137,0.5123,0.5115,0.5102,0.5085,0.507,0.5067,0.506,0.5058,0.5055,0.507,0.5072,0.5073,0.5077,0.5057,0.5057,0.5039,0.5039,0.5039]}]]